Wind_Speed
44 44 44 44 45 46 47 47 48 48 49 49 49 49 50 50 51 52 52 53 53 53 54 55 55 56 56 57 57 57 57 58 59 57 57 56 56 56 57 57 57 57 57
44 44 44 45 46 46 47 47 48 49 49 49 50 50 50 50 51 52 52 52 53 53 54 55 55 55 56 56 56 56 57 57 58 58 56 56 56 57 58 58 58 58 57
44 44 45 46 46 47 47 48 49 49 49 49 49 49 50 50 51 52 52 52 53 54 54 54 54 54 55 55 56 56 57 57 58 58 56 56 57 57 58 58 57 57 56
44 44 45 46 47 47 48 48 48 48 48 48 48 49 49 50 51 52 52 52 52 53 54 54 54 54 54 55 55 56 56 56 57 57 56 56 57 57 57 56 55 55 54
43 44 45 46 47 47 48 48 47 47 47 48 48 48 49 50 51 52 52 52 53 53 53 53 53 54 54 54 55 55 55 56 56 56 56 56 55 55 54 54 53 53 53
43 44 45 46 46 47 47 47 47 47 47 47 47 48 50 50 50 51 51 52 52 52 52 52 52 53 53 54 55 55 55 56 56 56 56 55 54 53 52 52 52 51 50
43 44 45 46 46 46 46 46 46 47 47 47 48 49 49 50 50 51 51 51 51 51 51 51 51 52 52 53 54 54 55 56 56 56 55 54 52 52 52 50 51 51 50
43 44 45 45 46 46 46 47 47 47 48 48 48 48 49 49 49 50 51 51 51 51 51 51 51 51 52 53 54 54 55 55 55 54 53 52 51 50 50 50 49 48 48
43 44 45 46 46 45 45 46 47 47 47 47 48 48 49 49 49 50 50 50 50 50 50 51 52 52 53 54 54 54 54 53 52 51 51 50 49 48 48 48 47 47 45
44 44 45 45 45 45 45 46 46 47 47 47 47 47 48 48 48 48 48 49 49 49 50 51 52 53 53 53 53 52 52 51 50 50 49 47 46 46 46 46 45 44 42
43 43 43 43 43 44 44 45 46 46 46 46 46 46 46 46 46 46 47 48 49 49 50 50 51 51 51 50 50 50 50 49 48 47 45 45 44 44 45 45 43 42 40
42 42 42 42 42 43 44 44 43 43 44 44 44 44 45 45 46 46 47 48 49 49 49 50 50 49 49 49 49 48 48 46 45 44 43 43 43 43 42 41 40 38 37
41 41 41 41 41 41 42 41 42 42 42 43 42 42 43 44 45 45 45 46 47 47 48 49 48 47 47 46 47 46 44 43 42 42 41 41 41 41 39 37 36 36 35
40 40 40 40 40 40 40 40 40 41 41 41 42 42 42 43 44 44 44 44 45 46 46 45 45 45 44 44 44 43 42 41 41 40 39 39 39 39 37 36 34 34 33
38 38 38 38 38 38 38 38 38 39 39 40 40 40 41 41 42 43 43 44 44 44 43 42 42 42 42 42 42 41 40 40 40 40 38 37 37 36 35 34 33 32 31
36 36 36 36 36 36 36 36 37 37 37 38 39 39 40 41 41 41 42 42 42 41 41 40 40 40 40 40 40 39 39 39 39 38 37 36 35 34 32 32 31 30 29
35 35 34 34 34 35 34 34 35 36 37 38 38 38 39 39 40 41 41 41 40 40 40 40 40 40 40 39 38 37 37 37 37 36 35 34 33 32 30 29 29 28 27
34 34 33 33 33 33 33 34 35 36 36 37 38 38 39 39 40 40 39 39 39 39 40 40 39 39 38 37 36 35 35 35 34 33 33 32 31 30 29 28 27 26 25
33 33 33 33 33 33 33 34 35 35 36 36 37 38 38 39 39 38 38 38 38 39 39 38 38 37 36 35 34 34 34 33 32 30 30 29 29 28 27 27 25 24 22
33 33 33 33 33 33 34 34 35 35 35 36 36 36 37 36 36 36 37 37 37 37 37 37 36 35 34 34 33 33 32 30 29 28 28 28 27 26 26 25 23 22 20
32 32 33 33 33 33 34 34 34 34 35 35 35 35 35 34 34 35 36 36 35 35 35 34 34 33 32 32 31 30 29 28 27 27 27 26 25 24 23 22 21 19 18
31 32 32 32 32 32 32 33 33 33 34 34 34 34 33 33 33 34 34 34 34 33 33 33 32 30 30 30 29 27 26 26 25 25 24 23 22 22 21 20 19 17 16
30 31 31 31 31 31 32 32 32 33 33 33 33 32 32 33 33 33 33 32 32 32 31 30 29 28 27 26 25 24 24 24 23 23 22 21 20 20 19 18 17 15 14
29 29 29 30 30 31 31 31 32 32 32 32 31 31 31 31 31 31 30 30 29 29 28 27 26 26 25 24 23 22 22 22 21 20 19 19 18 18 17 16 15 13 11
27 28 29 29 29 29 30 30 29 29 29 28 28 28 28 28 28 28 28 27 27 26 25 25 24 24 23 22 22 21 20 20 19 19 18 18 17 16 15 14 13 11 9
27 27 27 27 27 27 27 27 26 26 26 26 26 26 27 27 26 26 25 24 24 23 23 22 22 22 21 20 20 19 18 18 18 17 17 16 15 14 13 12 11 9 7
Wind_Direction
263 266 268 269 270 271 272 273 275 276 277 279 280 281 281 283 284 285 285 286 287 288 289 290 291 292 292 293 293 293 292 292 292 292 292 291 290 289 289 289 288 287 286
263 265 267 269 271 272 273 274 275 277 278 279 279 280 281 282 284 285 286 287 288 289 290 291 292 292 293 293 293 293 293 292 292 292 292 291 291 290 290 289 288 287 286
264 265 268 270 271 272 274 275 276 277 279 279 279 280 281 282 285 286 287 288 289 290 291 291 292 293 293 293 293 294 294 293 293 293 293 292 292 292 292 290 289 288 287
264 266 268 270 271 273 275 276 277 278 279 280 280 280 281 283 284 286 287 288 289 290 291 291 292 292 293 293 294 294 295 294 294 295 295 295 294 294 293 292 289 288 287
265 267 269 270 272 273 274 276 277 277 278 279 280 280 282 284 286 286 287 288 289 290 291 292 292 293 293 294 295 295 295 295 295 295 296 296 296 295 294 292 290 289 289
267 269 270 271 273 274 275 276 276 277 278 279 280 281 283 285 286 287 288 289 290 291 292 292 293 293 294 295 296 297 297 297 297 297 297 296 296 295 294 292 291 290 289
268 270 272 272 273 274 275 275 276 277 278 280 281 282 283 284 285 287 288 289 290 291 292 293 293 294 295 295 296 297 298 298 298 297 297 297 296 296 295 294 293 291 291
269 271 272 272 273 274 274 275 276 277 278 280 281 283 284 285 286 288 289 290 291 292 293 293 294 295 296 296 297 297 298 298 298 298 298 297 297 297 296 296 294 293 292
269 270 272 273 273 273 274 276 277 278 279 281 282 283 284 285 286 288 289 291 291 292 293 294 295 295 296 296 297 298 298 299 298 298 298 298 298 298 299 298 297 295 294
269 271 272 273 273 274 274 276 277 278 280 281 283 284 285 287 288 290 290 291 292 293 294 295 295 295 296 297 297 298 298 298 298 298 298 299 299 300 300 300 298 297 295
270 271 272 273 274 274 276 277 278 279 281 282 283 285 286 288 290 291 292 293 293 294 294 295 295 296 296 297 298 299 299 299 298 299 299 298 299 300 301 300 299 298 297
269 271 272 273 274 276 277 278 279 281 282 283 285 286 287 289 290 291 292 293 294 295 295 295 295 296 296 297 298 299 300 300 300 300 299 300 300 302 302 300 298 298 298
268 270 272 273 275 277 277 278 280 282 283 285 286 287 289 290 292 293 293 294 295 296 297 296 296 297 297 298 299 300 300 300 301 301 300 301 302 303 303 301 299 299 298
268 270 272 274 275 277 278 279 281 282 284 285 286 288 290 291 292 292 293 295 296 297 298 297 297 297 298 299 300 300 300 301 302 302 302 302 302 302 302 301 299 298 297
270 271 272 273 275 277 278 280 281 282 284 286 287 289 290 291 293 295 295 296 296 297 297 298 298 299 299 299 300 300 300 302 302 303 303 303 304 303 301 300 300 298 297
270 271 272 273 275 276 277 279 281 283 285 287 288 290 292 294 295 296 297 297 297 298 298 299 300 301 300 300 299 299 301 303 303 303 303 304 304 303 302 300 300 299 299
269 271 271 273 274 276 277 279 280 283 285 288 290 291 293 294 295 297 298 298 298 299 299 300 300 301 302 301 300 300 302 304 304 304 304 303 303 303 302 301 300 300 300
269 271 272 273 275 276 278 279 281 283 285 288 290 293 294 295 296 297 297 298 298 299 300 300 301 302 302 301 301 301 303 304 304 304 304 304 303 302 302 302 302 302 300
271 272 272 273 275 277 279 281 283 285 287 289 290 292 293 294 295 296 297 298 299 299 300 301 301 302 302 301 302 303 304 304 304 304 304 304 303 302 304 305 303 300 299
270 270 271 273 275 278 280 282 284 286 288 290 291 292 293 294 296 298 299 300 300 300 301 301 302 302 302 302 303 304 304 304 303 303 305 306 304 303 304 305 304 302 300
270 269 270 273 276 278 280 283 285 286 288 290 291 293 294 295 297 299 300 301 301 302 302 303 303 303 303 303 304 304 304 303 303 303 305 305 305 305 305 306 305 304 302
269 269 270 274 276 278 280 283 285 286 288 290 291 292 294 296 298 300 301 302 303 303 303 303 304 304 305 306 305 305 305 304 305 306 306 306 306 305 305 306 305 305 304
269 270 272 274 276 278 280 283 284 286 288 290 292 292 294 295 297 298 300 302 304 304 305 305 305 305 306 306 305 305 306 306 307 308 307 307 307 307 308 307 305 305 303
272 272 273 276 278 279 281 284 286 288 289 290 292 293 295 296 299 300 301 302 304 305 305 306 306 307 306 307 307 306 306 307 308 307 309 310 309 308 308 307 305 303 301
275 275 276 278 279 282 284 285 287 289 290 291 292 294 296 298 300 301 302 303 304 304 306 307 307 307 306 306 307 307 307 307 307 307 309 310 310 310 308 308 306 301 297
276 277 277 279 281 283 285 286 287 288 289 291 294 296 297 299 301 302 302 303 304 305 306 307 308 308 307 306 307 307 306 307 307 308 308 310 311 311 309 308 307 303 296
Height
5683 5684 5685 5685 5686 5686 5685 5685 5684 5683 5682 5681 5679 5677 5676 5674 5671 5669 5666 5664 5661 5658 5655 5652 5648 5644 5640 5636 5632 5628 5624 5619 5616 5616 5613 5609 5604 5600 5596 5592 5588 5585 5582
5673 5673 5674 5675 5675 5674 5674 5673 5672 5671 5670 5669 5667 5665 5663 5661 5659 5656 5653 5651 5648 5645 5642 5638 5634 5630 5626 5622 5617 5613 5609 5604 5600 5599 5597 5593 5589 5584 5580 5576 5572 5569 5566
5662 5663 5663 5663 5663 5663 5662 5661 5660 5659 5658 5656 5654 5653 5651 5648 5646 5643 5640 5638 5635 5632 5628 5624 5620 5616 5612 5608 5603 5599 5595 5590 5585 5582 5580 5577 5573 5568 5564 5560 5556 5552 5549
5651 5652 5652 5652 5652 5651 5651 5650 5649 5647 5646 5644 5642 5640 5638 5636 5633 5630 5627 5624 5622 5618 5615 5611 5606 5602 5598 5594 5589 5585 5580 5576 5571 5567 5564 5561 5557 5552 5547 5544 5541 5537 5533
5640 5641 5641 5641 5640 5640 5639 5638 5637 5635 5634 5632 5630 5628 5626 5623 5621 5617 5614 5611 5608 5605 5601 5597 5593 5589 5584 5579 5575 5571 5566 5561 5557 5553 5549 5545 5542 5537 5532 5528 5525 5522 5518
5629 5629 5629 5629 5629 5628 5627 5626 5625 5624 5622 5620 5618 5616 5614 5611 5608 5604 5601 5598 5595 5592 5588 5584 5580 5576 5571 5566 5562 5557 5552 5547 5543 5538 5534 5530 5526 5521 5517 5512 5509 5506 5504
5618 5618 5618 5618 5617 5616 5615 5614 5613 5612 5610 5608 5606 5603 5601 5599 5595 5592 5588 5585 5582 5578 5574 5571 5567 5562 5558 5553 5549 5544 5539 5533 5528 5523 5519 5515 5511 5507 5502 5498 5494 5490 5487
5607 5607 5607 5606 5605 5604 5603 5602 5601 5600 5598 5596 5593 5591 5589 5586 5582 5579 5576 5572 5569 5565 5561 5557 5553 5549 5544 5540 5535 5531 5525 5520 5515 5510 5505 5501 5496 5492 5487 5483 5479 5476 5473
5596 5596 5595 5594 5593 5592 5591 5590 5589 5587 5586 5583 5581 5579 5576 5574 5570 5566 5563 5559 5556 5552 5548 5544 5540 5536 5532 5526 5522 5517 5513 5507 5501 5496 5491 5487 5482 5478 5473 5469 5465 5462 5459
5585 5584 5584 5582 5582 5581 5580 5578 5577 5575 5573 5571 5569 5567 5564 5561 5558 5554 5550 5547 5543 5540 5536 5532 5527 5522 5517 5512 5508 5503 5499 5495 5489 5484 5479 5475 5470 5465 5460 5456 5452 5448 5445
5573 5573 5572 5571 5570 5569 5568 5567 5565 5563 5561 5559 5557 5555 5552 5549 5545 5542 5538 5534 5530 5527 5523 5519 5514 5509 5504 5499 5494 5490 5485 5481 5477 5472 5468 5463 5459 5454 5449 5444 5440 5436 5433
5561 5561 5561 5560 5559 5558 5557 5555 5554 5552 5550 5548 5545 5543 5540 5536 5533 5529 5526 5521 5517 5514 5510 5505 5501 5496 5491 5487 5482 5477 5473 5468 5464 5460 5456 5452 5448 5443 5439 5434 5429 5425 5422
5550 5550 5550 5549 5548 5547 5545 5544 5543 5541 5539 5536 5534 5531 5528 5525 5521 5517 5513 5509 5505 5501 5497 5492 5488 5483 5479 5475 5470 5466 5461 5457 5453 5450 5446 5441 5437 5433 5428 5424 5420 5416 5413
5540 5539 5539 5538 5537 5536 5535 5533 5532 5530 5528 5525 5523 5520 5517 5513 5509 5506 5501 5497 5493 5489 5484 5480 5476 5471 5467 5463 5459 5455 5450 5447 5443 5439 5435 5431 5427 5422 5418 5414 5411 5408 5405
5529 5529 5528 5528 5527 5526 5525 5523 5521 5519 5517 5514 5512 5509 5505 5502 5498 5494 5490 5486 5482 5478 5473 5469 5465 5461 5457 5452 5448 5444 5440 5436 5433 5429 5425 5421 5417 5413 5409 5405 5402 5399 5396
5519 5518 5518 5517 5517 5516 5514 5513 5510 5508 5506 5503 5500 5497 5494 5491 5487 5483 5479 5475 5470 5466 5463 5459 5455 5451 5446 5442 5438 5434 5430 5426 5423 5419 5415 5412 5408 5404 5400 5397 5393 5390 5387
5508 5508 5508 5507 5506 5505 5504 5503 5501 5499 5496 5493 5490 5487 5484 5480 5476 5472 5468 5464 5460 5456 5453 5449 5445 5441 5436 5432 5428 5425 5421 5417 5413 5410 5406 5403 5399 5396 5392 5389 5386 5383 5380
5498 5498 5498 5497 5496 5495 5494 5493 5491 5489 5487 5484 5480 5477 5474 5470 5466 5462 5459 5455 5451 5447 5443 5439 5435 5431 5427 5423 5419 5415 5412 5408 5404 5401 5397 5394 5391 5388 5384 5381 5378 5375 5373
5488 5488 5488 5487 5487 5486 5484 5483 5481 5479 5477 5474 5471 5467 5464 5460 5456 5453 5449 5445 5441 5437 5433 5429 5425 5421 5418 5414 5410 5407 5403 5400 5396 5393 5390 5386 5383 5380 5377 5374 5371 5369 5366
5478 5478 5478 5478 5477 5476 5475 5473 5471 5469 5467 5464 5461 5457 5454 5451 5447 5443 5439 5435 5432 5428 5424 5420 5416 5412 5409 5405 5402 5399 5395 5392 5388 5385 5382 5379 5376 5373 5370 5368 5365 5363 5360
5469 5469 5469 5468 5467 5466 5465 5463 5461 5459 5457 5454 5451 5448 5444 5441 5438 5434 5430 5426 5423 5419 5415 5411 5408 5404 5401 5397 5394 5391 5387 5384 5381 5378 5376 5373 5370 5367 5364 5362 5359 5357 5355
5459 5459 5459 5458 5457 5456 5455 5453 5451 5449 5447 5445 5442 5438 5435 5432 5429 5426 5422 5418 5414 5410 5407 5403 5400 5396 5393 5390 5386 5383 5381 5378 5375 5372 5369 5367 5364 5361 5359 5357 5355 5352 5351
5450 5450 5449 5449 5448 5447 5445 5444 5442 5440 5438 5435 5432 5430 5427 5424 5421 5417 5413 5410 5406 5402 5399 5395 5392 5389 5386 5383 5380 5377 5375 5372 5369 5366 5364 5361 5359 5356 5354 5352 5350 5348 5347
5441 5441 5440 5439 5438 5437 5436 5434 5432 5430 5428 5426 5423 5421 5418 5415 5412 5408 5405 5402 5398 5395 5392 5388 5385 5382 5379 5377 5374 5371 5369 5367 5364 5362 5359 5357 5354 5352 5350 5348 5346 5344 5343
5432 5432 5431 5430 5429 5428 5427 5425 5423 5421 5419 5417 5415 5412 5409 5407 5404 5401 5398 5394 5391 5388 5385 5382 5379 5376 5374 5371 5369 5366 5364 5362 5359 5357 5355 5353 5350 5348 5346 5344 5343 5341 5340
5424 5423 5423 5422 5421 5419 5418 5416 5415 5413 5411 5409 5407 5405 5402 5399 5396 5393 5390 5387 5385 5382 5379 5376 5374 5371 5368 5366 5364 5361 5359 5357 5355 5353 5351 5349 5347 5345 5343 5341 5339 5338 5338